This is the latest recevied weather packets stored in our database for station/object RW6A-13. If no packets are shown the sender has not sent any weather packets the latest 10 day(s).
| Time | Temp. | Humidity | Pressure | Rain* | Wind** | Luminosity | Snow |
|---|---|---|---|---|---|---|---|
| 1777485862 | 11.11° C | 68% | 1014.5 hPa | 0 mm | - | - | - |
| 1777485562 | 11.11° C | 68% | 1014.4 hPa | 0 mm | - | - | - |
| 1777485262 | 11.11° C | 67% | 1014.3 hPa | 0 mm | - | - | - |
| 1777484963 | 11.67° C | 66% | 1014.2 hPa | 0 mm | - | - | - |
| 1777484661 | 11.67° C | 65% | 1014.1 hPa | 0 mm | - | - | - |
| 1777484361 | 11.67° C | 64% | 1014.1 hPa | 0 mm | - | - | - |
| 1777484060 | 11.67° C | 65% | 1014.1 hPa | 0 mm | - | - | - |
| 1777483761 | 11.11° C | 67% | 1014.1 hPa | 0 mm | - | - | - |
| 1777483461 | 11.67° C | 67% | 1014.1 hPa | 0 mm | - | - | - |
| 1777483161 | 11.67° C | 66% | 1014 hPa | 0 mm | - | - | - |
| 1777482858 | 12.22° C | 65% | 1014 hPa | 0 mm | - | - | - |
| 1777482559 | 12.22° C | 63% | 1013.9 hPa | 0 mm | - | - | - |
| 1777482259 | 12.78° C | 61% | 1013.9 hPa | 0 mm | - | - | - |
| 1777481959 | 12.78° C | 60% | 1013.8 hPa | 0 mm | - | - | - |
| 1777481659 | 13.33° C | 59% | 1013.7 hPa | 0 mm | - | - | - |
| 1777481359 | 13.33° C | 58% | 1013.6 hPa | 0 mm | - | - | - |
| 1777481057 | 13.89° C | 56% | 1013.6 hPa | 0 mm | - | - | - |
| 1777480758 | 13.89° C | 56% | 1013.5 hPa | 0 mm | - | - | - |
| 1777480457 | 14.44° C | 55% | 1013.4 hPa | 0 mm | - | - | - |
| 1777480157 | 14.44° C | 52% | 1013.5 hPa | 0 mm | - | - | - |
| 1777479858 | 15° C | 52% | 1013.5 hPa | 0 mm | - | - | - |
| 1777479558 | 15° C | 50% | 1013.5 hPa | 0 mm | - | - | - |
| 1777479255 | 15.56° C | 49% | 1013.4 hPa | 0 mm | - | - | - |
| 1777478956 | 15.56° C | 48% | 1013.4 hPa | 0 mm | - | - | - |
| 1777478654 | 16.11° C | 47% | 1013.4 hPa | 0 mm | - | - | - |
* Rain latest hour (hover to see other rain measurements)
** Current wind speed in m/s (hover to see current wind gust speed)